Hourly Data Report for May 01, 2016

All times are specified in Local Standard Time (LST). Add 1 hour to adjust for Daylight Saving Time where and when it is observed.

Metadata including Station Name, Province, Latitude, Longitude, Elevation, Climate ID, WMO ID, TC ID
WEKWEETI A
NORTHWEST TERRITORIES
Latitude: 64°11'27.000" N Longitude: 114°04'36.000" W Elevation: 368.20 m
Climate ID: 2203980 WMO ID: TC ID: YWE
Hourly Data Report for May 1, 2016
Temp Definition
°C

Dew Point Temp Definition
°C

Rel Hum Definition
%

Wind Dir Definition
10's deg
Wind Spd Definition
km/h

Visibility Definition
km

Stn Press Definition
kPa

Hmdx Definition

Wind Chill Definition

Weather Definition

00:00 Legend Double Dagger 4.2 -1.4 67 21 4 16.1 96.82 LegendNANA
01:00 Legend Double Dagger 3.8 -1.2 70   0 16.1 96.82 LegendNANA
02:00 Legend Double Dagger 2.7 -1.7 73 18 8 16.1 96.78 LegendNANA
03:00 Legend Double Dagger 1.7 -1.9 77 16 9 16.1 96.72 LegendNANA
04:00 Legend Double Dagger 2.6 -1.6 74 15 9 16.1 96.70 LegendNANA
05:00 Legend Double Dagger 2.9 -1.5 73 6 5 16.1 96.62 LegendNANA
06:00 Legend Double Dagger 3.2 -2.1 68   0 16.1 96.56 LegendNANA
07:00 Legend Double Dagger 4.2 -2.4 62 19 5 16.1 96.49 LegendNANA
08:00 Legend Double Dagger 4.3 -2.4 62 20 9 16.1 96.43 LegendNANA
09:00 Legend Double Dagger 6.0 -2.8 53 18 9 16.1 96.38 LegendNANA
10:00 Legend Double Dagger 7.5 -3.3 46 25 11 16.1 96.34 LegendNANA
11:00 Legend Double Dagger 8.6 -3.8 41 21 11 16.1 96.26 LegendNANA
12:00 Legend Double Dagger 9.3 -3.5 40 21 15 16.1 96.24 LegendNANA
13:00 Legend Double Dagger 7.9 -2.1 49 23 17 16.1 96.25 LegendNANA
14:00 Legend Double Dagger 6.2 -1.5 58 25 17 16.1 96.27 LegendNANA
15:00 Legend Double Dagger 6.9 -1.6 55 26 22 16.1 96.36 LegendNANA
16:00 Legend Double Dagger 6.8 -1.4 56 26 24 16.1 96.43 LegendNANA
17:00 Legend Double Dagger 7.1 -1.6 54 26 22 16.1 96.47 LegendNANA
18:00 Legend Double Dagger 7.0 -1.2 56 26 21 16.1 96.54 LegendNANA
19:00 Legend Double Dagger 8.5 -2.3 47 29 18 16.1 96.61 LegendNANA
20:00 Legend Double Dagger 7.7 -2.3 49 29 11 16.1 96.67 LegendNANA
21:00 Legend Double Dagger 4.8 -2.0 61 25 8 16.1 96.73 LegendNANA
22:00 Legend Double Dagger 4.9 -2.7 58 29 8 16.1 96.79 LegendNANA
23:00 Legend Double Dagger 3.3 -2.5 66 25 9 16.1 96.83 LegendNANA

Notes on Data Quality.

Legend
  • E = Estimated
  • M = Missing
  • NA = Not Available
  • ‡ = Partner data that is not subject to review by the National Climate Archives